Time,TemperatureF,DewpointF,PressureIn,WindDirection,WindDirectionDegrees,WindSpeedMPH,WindSpeedGustMPH,Humidity,HourlyPrecipIn,Conditions,Clouds,dailyrainin,SoftwareType,DateUTC
2013-09-23 00:00:00,58.6,53.5,29.76,SE,124,10.0,15.0,83,0.00,,SKC,0.00,VWS V14.01,2013-09-23 05:00:00,
2013-09-23 00:03:00,58.6,53.8,29.75,SE,128,12.0,12.0,84,0.00,,SKC,0.00,VWS V14.01,2013-09-23 05:03:00,
2013-09-23 00:08:00,58.5,53.7,29.75,SE,128,10.0,13.0,84,0.00,,SKC,0.00,VWS V14.01,2013-09-23 05:08:00,
2013-09-23 00:13:00,58.4,53.9,29.75,SE,130,7.0,13.0,85,0.00,,SKC,0.00,VWS V14.01,2013-09-23 05:13:00,
2013-09-23 00:19:00,58.3,53.5,29.75,SE,133,6.0,13.0,84,0.00,,SKC,0.00,VWS V14.01,2013-09-23 05:19:00,
2013-09-23 00:24:00,58.3,53.8,29.75,SE,134,10.0,13.0,85,0.00,,SKC,0.00,VWS V14.01,2013-09-23 05:24:00,
2013-09-23 00:29:00,58.1,53.6,29.75,SE,137,7.0,13.0,85,0.00,,SKC,0.00,VWS V14.01,2013-09-23 05:29:00,
2013-09-23 00:30:00,59.0,53.5,29.76,SE,129,10.0,18.0,82,0.00,,SKC,0.00,VWS V14.01,2013-09-23 05:30:00,
2013-09-23 00:34:00,58.0,53.8,29.75,SE,134,8.0,11.0,86,0.00,,SKC,0.00,VWS V14.01,2013-09-23 05:34:00,
2013-09-23 00:39:00,57.9,53.7,29.75,SE,139,11.0,11.0,86,0.00,,SKC,0.00,VWS V14.01,2013-09-23 05:39:00,
2013-09-23 00:44:00,57.8,53.7,29.76,SE,138,9.0,14.0,86,0.00,,SKC,0.00,VWS V14.01,2013-09-23 05:44:00,
2013-09-23 00:49:00,57.7,53.5,29.76,SE,134,9.0,14.0,86,0.00,,SKC,0.00,VWS V14.01,2013-09-23 05:49:00,
2013-09-23 00:54:00,57.6,53.5,29.76,SE,135,10.0,14.0,86,0.00,,SKC,0.00,VWS V14.01,2013-09-23 05:54:00,
2013-09-23 00:59:00,57.5,53.3,29.76,SE,136,7.0,14.0,86,0.00,,SKC,0.00,VWS V14.01,2013-09-23 05:59:00,
2013-09-23 01:00:00,58.6,53.5,29.76,SE,124,10.0,15.0,83,0.00,,SKC,0.00,VWS V14.01,2013-09-23 06:00:00,
2013-09-23 01:04:00,57.5,53.3,29.76,SE,133,8.0,12.0,86,0.00,,SKC,0.00,VWS V14.01,2013-09-23 06:04:00,
2013-09-23 01:09:00,57.4,53.2,29.76,SE,134,11.0,13.0,86,0.00,,SKC,0.00,VWS V14.01,2013-09-23 06:09:00,
2013-09-23 01:14:00,57.3,53.2,29.76,SE,142,11.0,13.0,86,0.00,,SKC,0.00,VWS V14.01,2013-09-23 06:14:00,
2013-09-23 01:19:00,57.2,53.1,29.76,SE,138,8.0,13.0,86,0.00,,SKC,0.00,VWS V14.01,2013-09-23 06:19:00,
2013-09-23 01:24:00,57.2,53.4,29.76,SE,135,7.0,13.0,87,0.00,,SKC,0.00,VWS V14.01,2013-09-23 06:24:00,
2013-09-23 01:29:00,57.1,53.3,29.77,SE,138,9.0,13.0,87,0.00,,SKC,0.00,VWS V14.01,2013-09-23 06:29:00,
2013-09-23 01:30:00,58.0,53.8,29.75,SE,134,11.0,13.0,86,0.00,,SKC,0.00,VWS V14.01,2013-09-23 06:30:00,
2013-09-23 01:34:00,57.1,53.3,29.77,SE,136,6.0,11.0,87,0.00,,SKC,0.00,VWS V14.01,2013-09-23 06:34:00,
2013-09-23 01:39:00,57.1,53.3,29.77,SE,146,11.0,12.0,87,0.00,,SKC,0.00,VWS V14.01,2013-09-23 06:39:00,
2013-09-23 01:44:00,57.0,53.2,29.77,SE,135,10.0,12.0,87,0.00,,SKC,0.00,VWS V14.01,2013-09-23 06:44:00,
2013-09-23 01:49:00,56.9,53.1,29.77,SE,136,6.0,12.0,87,0.00,,SKC,0.00,VWS V14.01,2013-09-23 06:49:00,
2013-09-23 01:54:00,56.9,53.4,29.77,SE,138,9.0,12.0,88,0.00,,SKC,0.00,VWS V14.01,2013-09-23 06:54:00,
2013-09-23 01:59:00,56.9,53.4,29.77,SE,126,9.0,12.0,88,0.00,,SKC,0.00,VWS V14.01,2013-09-23 06:59:00,
2013-09-23 02:00:00,57.5,53.3,29.76,SE,137,9.0,14.0,86,0.00,,SKC,0.00,VWS V14.01,2013-09-23 07:00:00,
2013-09-23 02:04:00,56.9,53.4,29.77,SE,127,8.0,12.0,88,0.00,,SKC,0.00,VWS V14.01,2013-09-23 07:04:00,
2013-09-23 02:09:00,56.8,53.3,29.77,ESE,123,9.0,13.0,88,0.00,,SKC,0.00,VWS V14.01,2013-09-23 07:09:00,
2013-09-23 02:14:00,56.7,53.2,29.77,SE,131,8.0,13.0,88,0.00,,SKC,0.00,VWS V14.01,2013-09-23 07:14:00,
2013-09-23 02:19:00,56.6,53.1,29.77,SE,126,7.0,13.0,88,0.00,,SKC,0.00,VWS V14.01,2013-09-23 07:19:00,
2013-09-23 02:24:00,56.5,53.0,29.78,SE,139,7.0,13.0,88,0.00,,SKC,0.00,VWS V14.01,2013-09-23 07:24:00,
2013-09-23 02:29:00,56.4,52.9,29.78,SE,136,8.0,13.0,88,0.00,,SKC,0.00,VWS V14.01,2013-09-23 07:29:00,
2013-09-23 02:30:00,57.1,53.3,29.76,SE,136,9.0,13.0,87,0.00,,SKC,0.00,VWS V14.01,2013-09-23 07:30:00,
2013-09-23 02:35:00,56.3,52.8,29.78,SE,132,8.0,11.0,88,0.00,,SKC,0.00,VWS V14.01,2013-09-23 07:35:00,
2013-09-23 02:40:00,56.3,52.8,29.78,SE,135,9.0,13.0,88,0.00,,SKC,0.00,VWS V14.01,2013-09-23 07:40:00,
2013-09-23 02:45:00,56.2,52.7,29.78,SE,127,8.0,13.0,88,0.00,,SKC,0.00,VWS V14.01,2013-09-23 07:45:00,
2013-09-23 02:50:00,56.2,52.7,29.78,SE,141,7.0,13.0,88,0.00,,SKC,0.00,VWS V14.01,2013-09-23 07:50:00,
2013-09-23 02:55:00,56.1,52.6,29.78,SE,140,9.0,13.0,88,0.00,,SKC,0.00,VWS V14.01,2013-09-23 07:55:00,
2013-09-23 03:00:00,56.1,52.6,29.78,SE,130,10.0,13.0,88,0.00,,SKC,0.00,VWS V14.01,2013-09-23 08:00:00,
2013-09-23 03:05:00,56.1,52.9,29.78,SE,126,8.0,12.0,89,0.00,,SKC,0.00,VWS V14.01,2013-09-23 08:05:00,
2013-09-23 03:10:00,56.0,52.8,29.78,SE,126,10.0,12.0,89,0.00,,SKC,0.00,VWS V14.01,2013-09-23 08:10:00,
2013-09-23 03:15:00,55.9,52.7,29.77,SE,131,8.0,12.0,89,0.00,,SKC,0.00,VWS V14.01,2013-09-23 08:15:00,
2013-09-23 03:20:00,55.8,52.6,29.78,SE,130,10.0,12.0,89,0.00,,SKC,0.00,VWS V14.01,2013-09-23 08:20:00,
2013-09-23 03:25:00,55.7,52.5,29.78,SE,136,4.0,12.0,89,0.00,,SKC,0.00,VWS V14.01,2013-09-23 08:25:00,
2013-09-23 03:30:00,55.6,52.4,29.78,SE,140,5.0,12.0,89,0.00,,SKC,0.00,VWS V14.01,2013-09-23 08:30:00,
2013-09-23 03:35:00,55.5,52.6,29.78,SE,138,8.0,14.0,90,0.00,,SKC,0.00,VWS V14.01,2013-09-23 08:35:00,
2013-09-23 03:40:00,55.5,52.6,29.78,SE,127,11.0,14.0,90,0.00,,SKC,0.00,VWS V14.01,2013-09-23 08:40:00,
2013-09-23 03:45:00,55.4,52.2,29.78,ESE,123,11.0,14.0,89,0.00,,SKC,0.00,VWS V14.01,2013-09-23 08:45:00,
2013-09-23 03:50:00,55.4,52.5,29.78,SE,131,10.0,14.0,90,0.00,,SKC,0.00,VWS V14.01,2013-09-23 08:50:00,
2013-09-23 03:55:00,55.3,52.4,29.77,SE,130,9.0,14.0,90,0.00,,SKC,0.00,VWS V14.01,2013-09-23 08:55:00,
2013-09-23 04:00:00,55.2,52.3,29.78,SE,124,9.0,14.0,90,0.00,,SKC,0.00,VWS V14.01,2013-09-23 09:00:00,
2013-09-23 04:05:00,55.0,52.1,29.78,ESE,123,9.0,12.0,90,0.00,,SKC,0.00,VWS V14.01,2013-09-23 09:05:00,
2013-09-23 04:10:00,54.9,52.0,29.78,SE,126,8.0,12.0,90,0.00,,SKC,0.00,VWS V14.01,2013-09-23 09:10:00,
2013-09-23 04:15:00,54.8,51.9,29.78,SE,136,8.0,13.0,90,0.00,,SKC,0.00,VWS V14.01,2013-09-23 09:15:00,
2013-09-23 04:20:00,54.7,51.8,29.78,SE,127,11.0,13.0,90,0.00,,SKC,0.00,VWS V14.01,2013-09-23 09:20:00,
2013-09-23 04:25:00,54.7,51.8,29.78,SE,131,10.0,13.0,90,0.00,,SKC,0.00,VWS V14.01,2013-09-23 09:25:00,
2013-09-23 04:30:00,54.6,51.7,29.78,SE,129,11.0,15.0,90,0.00,,SKC,0.00,VWS V14.01,2013-09-23 09:30:00,
2013-09-23 04:35:00,54.6,51.7,29.78,SE,127,7.0,13.0,90,0.00,,SKC,0.00,VWS V14.01,2013-09-23 09:35:00,
2013-09-23 04:40:00,54.5,51.6,29.78,SE,125,11.0,13.0,90,0.00,,SKC,0.00,VWS V14.01,2013-09-23 09:40:00,
2013-09-23 04:45:00,54.5,51.6,29.78,SE,134,9.0,14.0,90,0.00,,SKC,0.00,VWS V14.01,2013-09-23 09:45:00,
2013-09-23 04:50:00,54.5,51.6,29.78,SE,126,9.0,14.0,90,0.00,,SKC,0.00,VWS V14.01,2013-09-23 09:50:00,
2013-09-23 04:56:00,54.5,51.6,29.78,SE,128,10.0,14.0,90,0.00,,SKC,0.00,VWS V14.01,2013-09-23 09:56:00,
2013-09-23 05:00:00,55.1,52.2,29.78,SE,124,6.0,14.0,90,0.00,,SKC,0.00,VWS V14.01,2013-09-23 10:00:00,
2013-09-23 05:01:00,54.4,51.5,29.78,SE,128,11.0,14.0,90,0.00,,SKC,0.00,VWS V14.01,2013-09-23 10:01:00,
2013-09-23 05:06:00,54.3,51.4,29.78,SE,128,11.0,14.0,90,0.00,,SKC,0.00,VWS V14.01,2013-09-23 10:06:00,
2013-09-23 05:11:00,54.3,51.4,29.78,SE,127,8.0,14.0,90,0.00,,SKC,0.00,VWS V14.01,2013-09-23 10:11:00,
2013-09-23 05:16:00,54.2,51.3,29.78,SE,126,12.0,14.0,90,0.00,,SKC,0.00,VWS V14.01,2013-09-23 10:16:00,
2013-09-23 05:21:00,54.2,51.3,29.78,SE,127,8.0,14.0,90,0.00,,SKC,0.00,VWS V14.01,2013-09-23 10:21:00,
2013-09-23 05:26:00,54.1,51.2,29.78,SE,132,9.0,14.0,90,0.00,,SKC,0.00,VWS V14.01,2013-09-23 10:26:00,
2013-09-23 05:30:00,54.6,51.7,29.78,SE,137,9.0,15.0,90,0.00,,SKC,0.00,VWS V14.01,2013-09-23 10:30:00,
2013-09-23 05:31:00,54.1,51.2,29.78,SE,127,10.0,14.0,90,0.00,,SKC,0.00,VWS V14.01,2013-09-23 10:31:00,
2013-09-23 05:36:00,54.0,51.1,29.78,SE,135,9.0,13.0,90,0.00,,SKC,0.00,VWS V14.01,2013-09-23 10:36:00,
2013-09-23 05:41:00,54.0,51.4,29.78,SE,138,7.0,13.0,91,0.00,,SKC,0.00,VWS V14.01,2013-09-23 10:41:00,
2013-09-23 05:46:00,53.8,50.9,29.78,SE,130,8.0,13.0,90,0.00,,SKC,0.00,VWS V14.01,2013-09-23 10:46:00,
2013-09-23 05:51:00,53.7,50.8,29.79,ESE,120,7.0,13.0,90,0.00,,SKC,0.00,VWS V14.01,2013-09-23 10:51:00,
2013-09-23 05:56:00,53.7,51.1,29.79,SE,133,10.0,13.0,91,0.00,,SKC,0.00,VWS V14.01,2013-09-23 10:56:00,
2013-09-23 06:00:00,54.4,51.5,29.78,SE,129,9.0,14.0,90,0.00,,SKC,0.00,VWS V14.01,2013-09-23 11:00:00,
2013-09-23 06:01:00,53.7,50.8,29.79,SE,136,9.0,9.0,90,0.00,,SKC,0.00,VWS V14.01,2013-09-23 11:01:00,
2013-09-23 06:06:00,53.6,51.0,29.79,SE,134,8.0,11.0,91,0.00,,SKC,0.00,VWS V14.01,2013-09-23 11:06:00,
2013-09-23 06:11:00,53.6,51.0,29.79,SE,125,11.0,15.0,91,0.00,,SKC,0.00,VWS V14.01,2013-09-23 11:11:00,
2013-09-23 06:16:00,53.4,50.5,29.80,SE,126,10.0,15.0,90,0.00,,SKC,0.00,VWS V14.01,2013-09-23 11:16:00,
2013-09-23 06:21:00,53.3,50.7,29.80,SE,134,8.0,15.0,91,0.00,,SKC,0.00,VWS V14.01,2013-09-23 11:21:00,
2013-09-23 06:26:00,53.3,50.7,29.80,SE,126,9.0,15.0,91,0.00,,SKC,0.00,VWS V14.01,2013-09-23 11:26:00,
2013-09-23 06:30:00,54.1,51.2,29.78,SE,127,10.0,14.0,90,0.00,,SKC,0.00,VWS V14.01,2013-09-23 11:30:00,
2013-09-23 06:31:00,53.2,50.7,29.80,SE,132,9.0,9.0,91,0.00,,SKC,0.00,VWS V14.01,2013-09-23 11:31:00,
2013-09-23 06:36:00,53.1,50.5,29.80,SE,126,10.0,11.0,91,0.00,,SKC,0.00,VWS V14.01,2013-09-23 11:36:00,
2013-09-23 06:41:00,53.1,50.5,29.80,SE,129,7.0,11.0,91,0.00,,SKC,0.00,VWS V14.01,2013-09-23 11:41:00,
2013-09-23 06:46:00,53.0,50.5,29.81,SE,127,9.0,11.0,91,0.00,,SKC,0.00,VWS V14.01,2013-09-23 11:46:00,
2013-09-23 06:51:00,52.9,50.3,29.81,SE,129,8.0,13.0,91,0.00,,SKC,0.00,VWS V14.01,2013-09-23 11:51:00,
2013-09-23 06:56:00,52.9,50.3,29.81,SE,129,7.0,13.0,91,0.00,,SKC,0.00,VWS V14.01,2013-09-23 11:56:00,
2013-09-23 07:00:00,53.7,50.8,29.79,SE,136,9.0,13.0,90,0.00,,SKC,0.00,VWS V14.01,2013-09-23 12:00:00,
2013-09-23 07:01:00,52.9,50.3,29.81,SE,124,6.0,12.0,91,0.00,,SKC,0.00,VWS V14.01,2013-09-23 12:01:00,
2013-09-23 07:06:00,52.9,50.3,29.81,ESE,121,9.0,12.0,91,0.00,,SKC,0.00,VWS V14.01,2013-09-23 12:06:00,
2013-09-23 07:12:00,52.8,50.2,29.81,SE,124,10.0,12.0,91,0.00,,SKC,0.00,VWS V14.01,2013-09-23 12:12:00,
2013-09-23 07:17:00,52.7,50.2,29.81,SE,127,8.0,13.0,91,0.00,,SKC,0.00,VWS V14.01,2013-09-23 12:17:00,
2013-09-23 07:22:00,52.7,50.2,29.81,SE,126,10.0,13.0,91,0.00,,SKC,0.00,VWS V14.01,2013-09-23 12:22:00,
2013-09-23 07:27:00,52.7,50.2,29.82,SE,126,9.0,13.0,91,0.00,,SKC,0.00,VWS V14.01,2013-09-23 12:27:00,
2013-09-23 07:30:00,53.2,50.7,29.80,SE,132,6.0,15.0,91,0.00,,SKC,0.00,VWS V14.01,2013-09-23 12:30:00,
2013-09-23 07:32:00,52.8,50.2,29.82,ESE,121,9.0,12.0,91,0.00,,SKC,0.00,VWS V14.01,2013-09-23 12:32:00,
2013-09-23 07:37:00,52.8,50.2,29.82,SE,132,8.0,13.0,91,0.00,,SKC,0.00,VWS V14.01,2013-09-23 12:37:00,
2013-09-23 07:42:00,52.9,50.0,29.82,SE,128,11.0,15.0,90,0.00,,SKC,0.00,VWS V14.01,2013-09-23 12:42:00,
2013-09-23 07:47:00,52.9,50.0,29.82,SE,125,10.0,15.0,90,0.00,,SKC,0.00,VWS V14.01,2013-09-23 12:47:00,
2013-09-23 07:52:00,53.1,50.5,29.82,ESE,123,9.0,15.0,91,0.00,,SKC,0.00,VWS V14.01,2013-09-23 12:52:00,
2013-09-23 07:57:00,53.4,50.5,29.82,ESE,121,12.0,15.0,90,0.00,,SKC,0.00,VWS V14.01,2013-09-23 12:57:00,
2013-09-23 08:00:00,52.9,50.3,29.81,SE,124,12.0,13.0,91,0.00,,SKC,0.00,VWS V14.01,2013-09-23 13:00:00,
2013-09-23 08:02:00,53.7,50.8,29.82,ESE,122,14.0,18.0,90,0.00,,SKC,0.00,VWS V14.01,2013-09-23 13:02:00,
2013-09-23 08:07:00,53.9,50.7,29.81,SE,131,14.0,18.0,89,0.00,,SKC,0.00,VWS V14.01,2013-09-23 13:07:00,
2013-09-23 08:12:00,54.1,50.3,29.81,ESE,119,11.0,18.0,87,0.00,,SKC,0.00,VWS V14.01,2013-09-23 13:12:00,
2013-09-23 08:17:00,54.3,50.5,29.81,ESE,122,12.0,18.0,87,0.00,,SKC,0.00,VWS V14.01,2013-09-23 13:17:00,
2013-09-23 08:22:00,54.5,50.7,29.81,ESE,121,13.0,20.0,87,0.00,,SKC,0.00,VWS V14.01,2013-09-23 13:22:00,
2013-09-23 08:27:00,54.7,50.6,29.81,ESE,121,14.0,20.0,86,0.00,,SKC,0.00,VWS V14.01,2013-09-23 13:27:00,
2013-09-23 08:30:00,52.8,50.2,29.82,SE,132,8.0,13.0,91,0.00,,SKC,0.00,VWS V14.01,2013-09-23 13:30:00,
2013-09-23 08:32:00,54.6,50.5,29.81,ESE,123,11.0,16.0,86,0.00,,SKC,0.00,VWS V14.01,2013-09-23 13:32:00,
2013-09-23 08:37:00,54.6,50.5,29.81,ESE,122,13.0,16.0,86,0.00,,SKC,0.00,VWS V14.01,2013-09-23 13:37:00,
2013-09-23 08:42:00,54.6,50.8,29.82,SE,130,15.0,19.0,87,0.00,,SKC,0.00,VWS V14.01,2013-09-23 13:42:00,
2013-09-23 08:47:00,54.8,51.0,29.82,SE,132,13.0,19.0,87,0.00,,SKC,0.00,VWS V14.01,2013-09-23 13:47:00,
2013-09-23 08:52:00,54.9,50.8,29.82,SE,125,10.0,21.0,86,0.00,,SKC,0.00,VWS V14.01,2013-09-23 13:52:00,
2013-09-23 08:57:00,55.0,50.9,29.82,SE,126,8.0,21.0,86,0.00,,SKC,0.00,VWS V14.01,2013-09-23 13:57:00,
2013-09-23 09:00:00,53.7,50.8,29.81,SE,132,11.0,15.0,90,0.00,,SKC,0.00,VWS V14.01,2013-09-23 14:00:00,
2013-09-23 09:02:00,55.2,51.1,29.82,SE,135,7.0,13.0,86,0.00,,SKC,0.00,VWS V14.01,2013-09-23 14:02:00,
2013-09-23 09:07:00,55.4,51.0,29.82,ESE,122,11.0,13.0,85,0.00,,SKC,0.00,VWS V14.01,2013-09-23 14:07:00,
2013-09-23 09:12:00,55.5,51.1,29.82,SE,144,10.0,14.0,85,0.00,,SKC,0.00,VWS V14.01,2013-09-23 14:12:00,
2013-09-23 09:17:00,55.7,51.3,29.82,SE,133,14.0,15.0,85,0.00,,SKC,0.00,VWS V14.01,2013-09-23 14:17:00,
2013-09-23 09:22:00,56.2,51.8,29.82,SE,137,9.0,15.0,85,0.00,,SKC,0.00,VWS V14.01,2013-09-23 14:22:00,
2013-09-23 09:27:00,57.0,52.2,29.82,SE,130,9.0,15.0,84,0.00,,SKC,0.00,VWS V14.01,2013-09-23 14:27:00,
2013-09-23 09:30:00,54.6,50.2,29.81,ESE,118,14.0,20.0,85,0.00,,SKC,0.00,VWS V14.01,2013-09-23 14:30:00,
2013-09-23 09:32:00,57.9,52.1,29.82,SSE,153,13.0,16.0,81,0.00,,SKC,0.00,VWS V14.01,2013-09-23 14:32:00,
2013-09-23 09:37:00,58.6,52.8,29.82,SE,139,11.0,16.0,81,0.00,,SKC,0.00,VWS V14.01,2013-09-23 14:37:00,
2013-09-23 09:43:00,59.0,52.8,29.82,SE,132,10.0,16.0,80,0.00,,SKC,0.00,VWS V14.01,2013-09-23 14:43:00,
2013-09-23 09:48:00,59.6,52.7,29.82,SE,129,6.0,16.0,78,0.00,,SKC,0.00,VWS V14.01,2013-09-23 14:48:00,
2013-09-23 09:53:00,60.2,53.3,29.81,SSE,161,10.0,16.0,78,0.00,,SKC,0.00,VWS V14.01,2013-09-23 14:53:00,
2013-09-23 09:58:00,60.6,53.0,29.81,SE,124,7.0,16.0,76,0.00,,SKC,0.00,VWS V14.01,2013-09-23 14:58:00,
2013-09-23 10:00:00,55.2,51.1,29.82,ESE,121,11.0,21.0,86,0.00,,SKC,0.00,VWS V14.01,2013-09-23 15:00:00,
2013-09-23 10:03:00,60.7,53.5,29.81,ESE,121,11.0,13.0,77,0.00,,SKC,0.00,VWS V14.01,2013-09-23 15:03:00,
2013-09-23 10:08:00,60.5,52.5,29.82,SE,129,8.0,13.0,75,0.00,,SKC,0.00,VWS V14.01,2013-09-23 15:08:00,
2013-09-23 10:13:00,60.7,53.5,29.81,SE,126,8.0,13.0,77,0.00,,SKC,0.00,VWS V14.01,2013-09-23 15:13:00,
2013-09-23 10:18:00,61.0,53.4,29.81,SE,129,11.0,13.0,76,0.00,,SKC,0.00,VWS V14.01,2013-09-23 15:18:00,
2013-09-23 10:23:00,61.3,53.3,29.81,SE,130,7.0,13.0,75,0.00,,SKC,0.00,VWS V14.01,2013-09-23 15:23:00,
2013-09-23 10:28:00,61.6,53.2,29.81,SE,126,9.0,13.0,74,0.00,,SKC,0.00,VWS V14.01,2013-09-23 15:28:00,
2013-09-23 10:30:00,57.7,52.2,29.82,SE,128,9.0,15.0,82,0.00,,SKC,0.00,VWS V14.01,2013-09-23 15:30:00,
2013-09-23 10:33:00,61.6,53.2,29.81,SE,142,5.0,14.0,74,0.00,,SKC,0.00,VWS V14.01,2013-09-23 15:33:00,
2013-09-23 10:38:00,61.4,53.0,29.81,SSE,158,10.0,14.0,74,0.00,,SKC,0.00,VWS V14.01,2013-09-23 15:38:00,
2013-09-23 10:43:00,61.4,53.4,29.81,SE,124,12.0,15.0,75,0.00,,SKC,0.00,VWS V14.01,2013-09-23 15:43:00,
2013-09-23 10:48:00,61.3,53.3,29.81,SE,136,8.0,15.0,75,0.00,,SKC,0.00,VWS V14.01,2013-09-23 15:48:00,
2013-09-23 10:53:00,61.4,53.8,29.81,SE,126,14.0,15.0,76,0.00,,SKC,0.00,VWS V14.01,2013-09-23 15:53:00,
2013-09-23 10:58:00,61.4,53.8,29.81,SE,133,9.0,15.0,76,0.00,,SKC,0.00,VWS V14.01,2013-09-23 15:58:00,
2013-09-23 11:00:00,60.7,53.5,29.81,SE,138,10.0,16.0,77,0.00,,SKC,0.00,VWS V14.01,2013-09-23 16:00:00,
2013-09-23 11:03:00,61.3,54.0,29.81,SE,136,11.0,14.0,77,0.00,,SKC,0.00,VWS V14.01,2013-09-23 16:03:00,
2013-09-23 11:08:00,61.4,53.8,29.81,SE,143,13.0,14.0,76,0.00,,SKC,0.00,VWS V14.01,2013-09-23 16:08:00,
2013-09-23 11:13:00,61.6,53.6,29.81,SE,136,6.0,16.0,75,0.00,,SKC,0.00,VWS V14.01,2013-09-23 16:13:00,
2013-09-23 11:18:00,62.2,54.2,29.81,SE,131,7.0,16.0,75,0.00,,SKC,0.00,VWS V14.01,2013-09-23 16:18:00,
2013-09-23 11:23:00,62.8,54.0,29.81,SE,126,8.0,16.0,73,0.00,,SKC,0.00,VWS V14.01,2013-09-23 16:23:00,
2013-09-23 11:28:00,63.2,54.4,29.81,SE,128,8.0,16.0,73,0.00,,SKC,0.00,VWS V14.01,2013-09-23 16:28:00,
2013-09-23 11:30:00,61.6,53.2,29.81,SE,137,11.0,14.0,74,0.00,,SKC,0.00,VWS V14.01,2013-09-23 16:30:00,
2013-09-23 11:33:00,63.7,55.3,29.81,SE,124,8.0,14.0,74,0.00,,SKC,0.00,VWS V14.01,2013-09-23 16:33:00,
2013-09-23 11:38:00,64.0,55.2,29.81,ESE,122,9.0,16.0,73,0.00,,SKC,0.00,VWS V14.01,2013-09-23 16:38:00,
2013-09-23 11:43:00,64.1,54.9,29.81,SE,136,11.0,16.0,72,0.00,,SKC,0.00,VWS V14.01,2013-09-23 16:43:00,
2013-09-23 11:48:00,64.3,55.1,29.81,SE,131,10.0,16.0,72,0.00,,SKC,0.00,VWS V14.01,2013-09-23 16:48:00,
2013-09-23 11:53:00,64.6,55.0,29.81,SE,134,15.0,16.0,71,0.00,,SKC,0.00,VWS V14.01,2013-09-23 16:53:00,
2013-09-23 11:58:00,64.9,55.3,29.80,SE,138,16.0,16.0,71,0.00,,SKC,0.00,VWS V14.01,2013-09-23 16:58:00,
2013-09-23 12:00:00,61.4,53.8,29.81,SE,131,9.0,15.0,76,0.00,,SKC,0.00,VWS V14.01,2013-09-23 17:00:00,
2013-09-23 12:03:00,65.4,55.8,29.80,SSE,161,11.0,18.0,71,0.00,,SKC,0.00,VWS V14.01,2013-09-23 17:03:00,
2013-09-23 12:08:00,65.8,56.2,29.80,SSE,149,10.0,18.0,71,0.00,,SKC,0.00,VWS V14.01,2013-09-23 17:08:00,
2013-09-23 12:13:00,66.2,54.9,29.80,SE,136,11.0,18.0,67,0.00,,SKC,0.00,VWS V14.01,2013-09-23 17:13:00,
2013-09-23 12:19:00,66.4,55.5,29.80,SE,124,5.0,18.0,68,0.00,,SKC,0.00,VWS V14.01,2013-09-23 17:19:00,
2013-09-23 12:24:00,66.4,55.5,29.80,SE,134,11.0,18.0,68,0.00,,SKC,0.00,VWS V14.01,2013-09-23 17:24:00,
2013-09-23 12:29:00,66.5,54.8,29.79,ESE,118,11.0,18.0,66,0.00,,SKC,0.00,VWS V14.01,2013-09-23 17:29:00,
2013-09-23 12:30:00,63.5,55.1,29.81,ESE,119,13.0,16.0,74,0.00,,SKC,0.00,VWS V14.01,2013-09-23 17:30:00,
2013-09-23 12:34:00,66.7,55.0,29.79,SE,142,8.0,15.0,66,0.00,,SKC,0.00,VWS V14.01,2013-09-23 17:34:00,
2013-09-23 12:39:00,66.7,55.4,29.79,SSE,167,12.0,16.0,67,0.00,,SKC,0.00,VWS V14.01,2013-09-23 17:39:00,
2013-09-23 12:44:00,66.9,55.2,29.79,ESE,120,9.0,16.0,66,0.00,,SKC,0.00,VWS V14.01,2013-09-23 17:44:00,
2013-09-23 12:49:00,67.2,55.0,29.78,SE,128,5.0,16.0,65,0.00,,SKC,0.00,VWS V14.01,2013-09-23 17:49:00,
2013-09-23 12:54:00,67.8,56.0,29.78,SE,142,12.0,16.0,66,0.00,,SKC,0.00,VWS V14.01,2013-09-23 17:54:00,
2013-09-23 12:59:00,67.9,55.3,29.78,SE,138,7.0,18.0,64,0.00,,SKC,0.00,VWS V14.01,2013-09-23 17:59:00,
2013-09-23 13:00:00,65.1,55.5,29.80,ESE,123,14.0,16.0,71,0.00,,SKC,0.00,VWS V14.01,2013-09-23 18:00:00,
2013-09-23 13:04:00,68.3,55.7,29.78,SSE,150,6.0,13.0,64,0.00,,SKC,0.00,VWS V14.01,2013-09-23 18:04:00,
2013-09-23 13:09:00,68.4,56.2,29.78,SE,128,6.0,18.0,65,0.00,,SKC,0.00,VWS V14.01,2013-09-23 18:09:00,
2013-09-23 13:14:00,68.6,55.5,29.78,SE,135,8.0,18.0,63,0.00,,SKC,0.00,VWS V14.01,2013-09-23 18:14:00,
2013-09-23 13:19:00,68.8,56.1,29.78,SE,128,12.0,18.0,64,0.00,,SKC,0.00,VWS V14.01,2013-09-23 18:19:00,
2013-09-23 13:24:00,69.1,56.0,29.78,SE,136,0.0,18.0,63,0.00,,SKC,0.00,VWS V14.01,2013-09-23 18:24:00,
2013-09-23 13:29:00,69.4,55.4,29.78,SE,139,0.0,18.0,61,0.00,,SKC,0.00,VWS V14.01,2013-09-23 18:29:00,
2013-09-23 13:30:00,66.6,54.9,29.79,SE,138,12.0,18.0,66,0.00,,SKC,0.00,VWS V14.01,2013-09-23 18:30:00,
2013-09-23 13:34:00,69.9,56.3,29.78,SE,143,4.0,11.0,62,0.00,,SKC,0.00,VWS V14.01,2013-09-23 18:34:00,
2013-09-23 13:39:00,70.5,55.5,29.78,SE,141,11.0,15.0,59,0.00,,SKC,0.00,VWS V14.01,2013-09-23 18:39:00,
2013-09-23 13:44:00,70.1,55.1,29.78,SE,132,14.0,20.0,59,0.00,,SKC,0.00,VWS V14.01,2013-09-23 18:44:00,
2013-09-23 13:49:00,69.3,54.8,29.78,ESE,118,18.0,22.0,60,0.00,,SKC,0.00,VWS V14.01,2013-09-23 18:49:00,
2013-09-23 13:54:00,69.2,54.7,29.77,SE,137,10.0,22.0,60,0.00,,SKC,0.00,VWS V14.01,2013-09-23 18:54:00,
2013-09-23 13:59:00,69.5,55.9,29.77,SE,138,0.0,22.0,62,0.00,,SKC,0.00,VWS V14.01,2013-09-23 18:59:00,
2013-09-23 14:00:00,68.0,55.0,29.78,SE,132,4.0,18.0,63,0.00,,SKC,0.00,VWS V14.01,2013-09-23 19:00:00,
2013-09-23 14:04:00,69.7,54.3,29.77,SE,130,7.0,14.0,58,0.00,,SKC,0.00,VWS V14.01,2013-09-23 19:04:00,
2013-09-23 14:09:00,69.7,54.8,29.77,SE,132,9.0,14.0,59,0.00,,SKC,0.00,VWS V14.01,2013-09-23 19:09:00,
2013-09-23 14:14:00,69.5,55.0,29.77,SE,142,5.0,16.0,60,0.00,,SKC,0.00,VWS V14.01,2013-09-23 19:14:00,
2013-09-23 14:19:00,69.3,54.4,29.77,SE,135,2.0,16.0,59,0.00,,SKC,0.00,VWS V14.01,2013-09-23 19:19:00,
2013-09-23 14:25:00,69.2,54.3,29.77,SE,143,9.0,16.0,59,0.00,,SKC,0.00,VWS V14.01,2013-09-23 19:25:00,
2013-09-23 14:30:00,69.1,55.1,29.77,SE,126,9.0,16.0,61,0.00,,SKC,0.00,VWS V14.01,2013-09-23 19:30:00,
2013-09-23 14:35:00,68.9,55.4,29.77,SSE,155,9.0,14.0,62,0.00,,SKC,0.00,VWS V14.01,2013-09-23 19:35:00,
2013-09-23 14:40:00,68.8,55.3,29.76,SE,129,4.0,14.0,62,0.00,,SKC,0.00,VWS V14.01,2013-09-23 19:40:00,
2013-09-23 14:45:00,68.9,55.8,29.76,SE,124,0.0,14.0,63,0.00,,SKC,0.00,VWS V14.01,2013-09-23 19:45:00,
2013-09-23 14:50:00,69.0,55.5,29.76,SE,143,4.0,14.0,62,0.00,,SKC,0.00,VWS V14.01,2013-09-23 19:50:00,
2013-09-23 14:55:00,68.9,54.5,29.76,SE,137,3.0,15.0,60,0.00,,SKC,0.00,VWS V14.01,2013-09-23 19:55:00,
2013-09-23 15:00:00,68.9,54.9,29.76,SE,124,11.0,15.0,61,0.00,,SKC,0.00,VWS V14.01,2013-09-23 20:00:00,
2013-09-23 15:05:00,68.5,55.0,29.76,ESE,121,7.0,14.0,62,0.00,,SKC,0.00,VWS V14.01,2013-09-23 20:05:00,
2013-09-23 15:10:00,68.4,55.8,29.76,SE,145,6.0,14.0,64,0.00,,SKC,0.00,VWS V14.01,2013-09-23 20:10:00,
2013-09-23 15:15:00,68.4,54.4,29.76,SE,129,5.0,14.0,61,0.00,,SKC,0.00,VWS V14.01,2013-09-23 20:15:00,
2013-09-23 15:20:00,68.5,54.1,29.76,SSE,147,13.0,15.0,60,0.00,,SKC,0.00,VWS V14.01,2013-09-23 20:20:00,
2013-09-23 15:25:00,68.5,54.1,29.76,SE,139,7.0,15.0,60,0.00,,SKC,0.00,VWS V14.01,2013-09-23 20:25:00,
2013-09-23 15:30:00,68.5,54.1,29.75,SE,126,4.0,15.0,60,0.00,,SKC,0.00,VWS V14.01,2013-09-23 20:30:00,
2013-09-23 15:35:00,68.7,54.3,29.76,SE,140,9.0,15.0,60,0.00,,SKC,0.00,VWS V14.01,2013-09-23 20:35:00,
2013-09-23 15:40:00,68.7,54.3,29.75,SE,137,6.0,15.0,60,0.00,,SKC,0.00,VWS V14.01,2013-09-23 20:40:00,
2013-09-23 15:45:00,68.9,54.9,29.75,ESE,117,3.0,15.0,61,0.00,,SKC,0.00,VWS V14.01,2013-09-23 20:45:00,
2013-09-23 15:50:00,69.0,54.5,29.75,SE,128,8.0,15.0,60,0.00,,SKC,0.00,VWS V14.01,2013-09-23 20:50:00,
2013-09-23 15:55:00,69.0,55.0,29.75,ESE,121,8.0,15.0,61,0.00,,SKC,0.00,VWS V14.01,2013-09-23 20:55:00,
2013-09-23 16:00:00,68.8,55.3,29.75,ESE,113,13.0,15.0,62,0.00,,SKC,0.00,VWS V14.01,2013-09-23 21:00:00,
2013-09-23 16:05:00,68.5,55.0,29.76,SSE,155,12.0,14.0,62,0.00,,SKC,0.00,VWS V14.01,2013-09-23 21:05:00,
2013-09-23 16:10:00,68.5,55.9,29.75,ESE,121,15.0,16.0,64,0.00,,SKC,0.00,VWS V14.01,2013-09-23 21:10:00,
2013-09-23 16:15:00,68.4,54.9,29.75,SSE,153,12.0,16.0,62,0.00,,SKC,0.00,VWS V14.01,2013-09-23 21:15:00,
2013-09-23 16:20:00,68.5,54.5,29.75,SE,136,11.0,16.0,61,0.00,,SKC,0.00,VWS V14.01,2013-09-23 21:20:00,
2013-09-23 16:25:00,68.5,54.1,29.75,ESE,122,12.0,16.0,60,0.00,,SKC,0.00,VWS V14.01,2013-09-23 21:25:00,
2013-09-23 16:30:00,68.5,55.0,29.75,SE,140,9.0,16.0,62,0.00,,SKC,0.00,VWS V14.01,2013-09-23 21:30:00,
2013-09-23 16:35:00,68.5,55.0,29.75,SE,134,6.0,12.0,62,0.00,,SKC,0.00,VWS V14.01,2013-09-23 21:35:00,
2013-09-23 16:40:00,68.5,55.9,29.75,SE,132,8.0,14.0,64,0.00,,SKC,0.00,VWS V14.01,2013-09-23 21:40:00,
2013-09-23 16:46:00,68.5,56.3,29.75,ESE,122,11.0,16.0,65,0.00,,SKC,0.00,VWS V14.01,2013-09-23 21:46:00,
2013-09-23 16:51:00,68.3,56.1,29.75,SE,141,15.0,16.0,65,0.00,,SKC,0.00,VWS V14.01,2013-09-23 21:51:00,
2013-09-23 16:56:00,68.3,55.2,29.75,SE,131,12.0,16.0,63,0.00,,SKC,0.00,VWS V14.01,2013-09-23 21:56:00,
2013-09-23 17:00:00,68.7,55.6,29.75,ESE,115,12.0,15.0,63,0.00,,SKC,0.00,VWS V14.01,2013-09-23 22:00:00,
2013-09-23 17:01:00,68.2,55.1,29.75,SE,130,12.0,18.0,63,0.00,,SKC,0.00,VWS V14.01,2013-09-23 22:01:00,
2013-09-23 17:06:00,68.1,55.5,29.75,SE,126,10.0,15.0,64,0.00,,SKC,0.00,VWS V14.01,2013-09-23 22:06:00,
2013-09-23 17:11:00,68.0,55.0,29.75,SE,124,12.0,20.0,63,0.00,,SKC,0.00,VWS V14.01,2013-09-23 22:11:00,
2013-09-23 17:16:00,68.1,55.5,29.75,SE,124,11.0,20.0,64,0.00,,SKC,0.00,VWS V14.01,2013-09-23 22:16:00,
2013-09-23 17:21:00,68.1,54.6,29.75,SE,140,9.0,20.0,62,0.00,,SKC,0.00,VWS V14.01,2013-09-23 22:21:00,
2013-09-23 17:26:00,68.2,54.7,29.75,SE,142,9.0,20.0,62,0.00,,SKC,0.00,VWS V14.01,2013-09-23 22:26:00,
2013-09-23 17:30:00,68.5,55.0,29.75,SE,124,10.0,16.0,62,0.00,,SKC,0.00,VWS V14.01,2013-09-23 22:30:00,
2013-09-23 17:31:00,68.2,55.1,29.75,SE,132,7.0,9.0,63,0.00,,SKC,0.00,VWS V14.01,2013-09-23 22:31:00,
2013-09-23 17:36:00,68.2,54.7,29.75,SE,133,9.0,14.0,62,0.00,,SKC,0.00,VWS V14.01,2013-09-23 22:36:00,
2013-09-23 17:41:00,68.2,55.6,29.75,ESE,122,8.0,15.0,64,0.00,,SKC,0.00,VWS V14.01,2013-09-23 22:41:00,
2013-09-23 17:46:00,68.1,56.3,29.76,SE,138,8.0,15.0,66,0.00,,SKC,0.00,VWS V14.01,2013-09-23 22:46:00,
2013-09-23 17:51:00,67.9,55.7,29.75,SE,126,10.0,15.0,65,0.00,,SKC,0.00,VWS V14.01,2013-09-23 22:51:00,
2013-09-23 17:56:00,67.8,56.5,29.75,ESE,121,11.0,15.0,67,0.00,,SKC,0.00,VWS V14.01,2013-09-23 22:56:00,
2013-09-23 18:00:00,68.2,55.1,29.75,SE,125,13.0,18.0,63,0.00,,SKC,0.00,VWS V14.01,2013-09-23 23:00:00,
2013-09-23 18:01:00,67.6,55.4,29.76,ESE,119,9.0,12.0,65,0.00,,SKC,0.00,VWS V14.01,2013-09-23 23:01:00,
2013-09-23 18:06:00,67.6,55.8,29.76,SE,138,14.0,19.0,66,0.00,,SKC,0.00,VWS V14.01,2013-09-23 23:06:00,
2013-09-23 18:11:00,67.4,55.7,29.76,ESE,120,12.0,19.0,66,0.00,,SKC,0.00,VWS V14.01,2013-09-23 23:11:00,
2013-09-23 18:16:00,67.2,55.5,29.76,ESE,123,12.0,19.0,66,0.00,,SKC,0.00,VWS V14.01,2013-09-23 23:16:00,
2013-09-23 18:21:00,67.2,56.3,29.76,ESE,123,10.0,19.0,68,0.00,,SKC,0.00,VWS V14.01,2013-09-23 23:21:00,
2013-09-23 18:26:00,67.1,55.8,29.76,SE,126,9.0,19.0,67,0.00,,SKC,0.00,VWS V14.01,2013-09-23 23:26:00,
2013-09-23 18:30:00,68.2,55.1,29.75,SE,132,9.0,20.0,63,0.00,,SKC,0.00,VWS V14.01,2013-09-23 23:30:00,
2013-09-23 18:31:00,67.0,55.7,29.76,ESE,120,11.0,14.0,67,0.00,,SKC,0.00,VWS V14.01,2013-09-23 23:31:00,
2013-09-23 18:36:00,66.8,55.5,29.76,ESE,123,10.0,14.0,67,0.00,,SKC,0.00,VWS V14.01,2013-09-23 23:36:00,
2013-09-23 18:41:00,66.7,55.8,29.76,ESE,119,9.0,14.0,68,0.00,,SKC,0.00,VWS V14.01,2013-09-23 23:41:00,
2013-09-23 18:47:00,66.5,55.6,29.76,SE,142,11.0,14.0,68,0.00,,SKC,0.00,VWS V14.01,2013-09-23 23:47:00,
2013-09-23 18:52:00,66.3,55.8,29.76,ESE,117,10.0,14.0,69,0.00,,SKC,0.00,VWS V14.01,2013-09-23 23:52:00,
2013-09-23 18:57:00,66.2,55.3,29.76,SE,130,9.0,14.0,68,0.00,,SKC,0.00,VWS V14.01,2013-09-23 23:57:00,
2013-09-23 19:00:00,67.6,55.4,29.76,ESE,120,11.0,15.0,65,0.00,,SKC,0.00,VWS V14.01,2013-09-24 00:00:00,
2013-09-23 19:02:00,66.1,55.7,29.76,SE,130,8.0,11.0,69,0.00,,SKC,0.00,VWS V14.01,2013-09-24 00:02:00,
2013-09-23 19:07:00,65.9,56.2,29.76,SE,136,8.0,11.0,71,0.00,,SKC,0.00,VWS V14.01,2013-09-24 00:07:00,
2013-09-23 19:12:00,65.7,56.4,29.76,SE,136,6.0,11.0,72,0.00,,SKC,0.00,VWS V14.01,2013-09-24 00:12:00,
2013-09-23 19:17:00,65.4,56.9,29.76,SE,136,6.0,11.0,74,0.00,,SKC,0.00,VWS V14.01,2013-09-24 00:17:00,
2013-09-23 19:22:00,65.1,56.2,29.77,SE,136,6.0,11.0,73,0.00,,SKC,0.00,VWS V14.01,2013-09-24 00:22:00,
2013-09-23 19:27:00,64.8,56.0,29.77,SE,136,7.0,11.0,73,0.00,,SKC,0.00,VWS V14.01,2013-09-24 00:27:00,
2013-09-23 19:30:00,67.0,55.3,29.76,SE,126,14.0,19.0,66,0.00,,SKC,0.00,VWS V14.01,2013-09-24 00:30:00,
2013-09-23 19:32:00,64.6,55.8,29.77,SE,136,7.0,7.0,73,0.00,,SKC,0.00,VWS V14.01,2013-09-24 00:32:00,
2013-09-23 19:37:00,64.3,55.5,29.77,SE,136,6.0,8.0,73,0.00,,SKC,0.00,VWS V14.01,2013-09-24 00:37:00,
2013-09-23 19:42:00,64.1,55.3,29.77,SE,135,6.0,10.0,73,0.00,,SKC,0.00,VWS V14.01,2013-09-24 00:42:00,
2013-09-23 19:47:00,63.8,55.4,29.77,SE,134,7.0,10.0,74,0.00,,SKC,0.00,VWS V14.01,2013-09-24 00:47:00,
2013-09-23 19:52:00,63.6,55.2,29.78,SE,134,6.0,10.0,74,0.00,,SKC,0.00,VWS V14.01,2013-09-24 00:52:00,
2013-09-23 19:57:00,63.4,55.3,29.78,SE,134,6.0,10.0,75,0.00,,SKC,0.00,VWS V14.01,2013-09-24 00:57:00,
2013-09-23 20:00:00,66.1,55.2,29.76,SE,132,8.0,14.0,68,0.00,,SKC,0.00,VWS V14.01,2013-09-24 01:00:00,
2013-09-23 20:02:00,63.2,55.2,29.78,SE,134,5.0,5.0,75,0.00,,SKC,0.00,VWS V14.01,2013-09-24 01:02:00,
2013-09-23 20:07:00,62.9,55.2,29.78,SE,134,6.0,7.0,76,0.00,,SKC,0.00,VWS V14.01,2013-09-24 01:07:00,
2013-09-23 20:12:00,62.7,55.0,29.78,SE,134,6.0,9.0,76,0.00,,SKC,0.00,VWS V14.01,2013-09-24 01:12:00,
2013-09-23 20:17:00,62.5,54.8,29.79,SE,131,5.0,9.0,76,0.00,,SKC,0.00,VWS V14.01,2013-09-24 01:17:00,
2013-09-23 20:22:00,62.4,54.8,29.79,SE,130,9.0,10.0,76,0.00,,SKC,0.00,VWS V14.01,2013-09-24 01:22:00,
2013-09-23 20:27:00,62.3,54.7,29.79,SE,130,7.0,10.0,76,0.00,,SKC,0.00,VWS V14.01,2013-09-24 01:27:00,
2013-09-23 20:30:00,64.7,55.5,29.77,SE,136,5.0,11.0,72,0.00,,SKC,0.00,VWS V14.01,2013-09-24 01:30:00,
2013-09-23 20:33:00,62.2,54.5,29.79,SE,129,10.0,11.0,76,0.00,,SKC,0.00,VWS V14.01,2013-09-24 01:33:00,
2013-09-23 20:38:00,62.1,54.5,29.79,SE,128,9.0,11.0,76,0.00,,SKC,0.00,VWS V14.01,2013-09-24 01:38:00,
2013-09-23 20:43:00,62.0,54.4,29.80,SE,128,8.0,11.0,76,0.00,,SKC,0.00,VWS V14.01,2013-09-24 01:43:00,
2013-09-23 20:48:00,62.0,54.4,29.80,SE,127,7.0,11.0,76,0.00,,SKC,0.00,VWS V14.01,2013-09-24 01:48:00,
2013-09-23 20:53:00,61.9,54.6,29.80,SE,124,7.0,12.0,77,0.00,,SKC,0.00,VWS V14.01,2013-09-24 01:53:00,
2013-09-23 20:58:00,61.8,54.5,29.79,SE,124,8.0,12.0,77,0.00,,SKC,0.00,VWS V14.01,2013-09-24 01:58:00,
2013-09-23 21:00:00,63.3,55.2,29.78,SE,134,5.0,10.0,75,0.00,,SKC,0.00,VWS V14.01,2013-09-24 02:00:00,
2013-09-23 21:03:00,61.8,54.2,29.79,SE,124,10.0,12.0,76,0.00,,SKC,0.00,VWS V14.01,2013-09-24 02:03:00,
2013-09-23 21:08:00,61.7,54.8,29.79,SE,125,7.0,12.0,78,0.00,,SKC,0.00,VWS V14.01,2013-09-24 02:08:00,
2013-09-23 21:13:00,61.6,54.3,29.79,SE,125,6.0,12.0,77,0.00,,SKC,0.00,VWS V14.01,2013-09-24 02:13:00,
2013-09-23 21:18:00,61.5,54.6,29.79,SE,126,8.0,12.0,78,0.00,,SKC,0.00,VWS V14.01,2013-09-24 02:18:00,
2013-09-23 21:23:00,61.4,54.5,29.79,SE,126,6.0,12.0,78,0.00,,SKC,0.00,VWS V14.01,2013-09-24 02:23:00,
2013-09-23 21:28:00,61.2,54.3,29.80,SE,133,6.0,12.0,78,0.00,,SKC,0.00,VWS V14.01,2013-09-24 02:28:00,
2013-09-23 21:30:00,62.2,54.5,29.79,SE,129,9.0,11.0,76,0.00,,SKC,0.00,VWS V14.01,2013-09-24 02:30:00,
2013-09-23 21:33:00,61.1,53.8,29.80,SE,138,7.0,9.0,77,0.00,,SKC,0.00,VWS V14.01,2013-09-24 02:33:00,
2013-09-23 21:38:00,61.0,54.1,29.80,SE,139,7.0,9.0,78,0.00,,SKC,0.00,VWS V14.01,2013-09-24 02:38:00,
2013-09-23 21:43:00,60.8,53.9,29.80,SE,140,6.0,9.0,78,0.00,,SKC,0.00,VWS V14.01,2013-09-24 02:43:00,
2013-09-23 21:48:00,60.7,53.8,29.80,SE,140,6.0,9.0,78,0.00,,SKC,0.00,VWS V14.01,2013-09-24 02:48:00,
2013-09-23 21:53:00,60.7,53.8,29.80,SE,137,5.0,10.0,78,0.00,,SKC,0.00,VWS V14.01,2013-09-24 02:53:00,
2013-09-23 21:58:00,60.6,54.1,29.80,SE,136,7.0,10.0,79,0.00,,SKC,0.00,VWS V14.01,2013-09-24 02:58:00,
2013-09-23 22:00:00,61.8,54.5,29.79,SE,124,8.0,12.0,77,0.00,,SKC,0.00,VWS V14.01,2013-09-24 03:00:00,
2013-09-23 22:03:00,60.5,53.6,29.80,SE,136,6.0,8.0,78,0.00,,SKC,0.00,VWS V14.01,2013-09-24 03:03:00,
2013-09-23 22:08:00,60.4,53.9,29.80,SE,136,5.0,8.0,79,0.00,,SKC,0.00,VWS V14.01,2013-09-24 03:08:00,
2013-09-23 22:14:00,60.2,53.7,29.81,SE,136,4.0,8.0,79,0.00,,SKC,0.00,VWS V14.01,2013-09-24 03:14:00,
2013-09-23 22:19:00,60.1,53.6,29.81,SE,140,5.0,8.0,79,0.00,,SKC,0.00,VWS V14.01,2013-09-24 03:19:00,
2013-09-23 22:24:00,59.9,53.4,29.81,SE,142,6.0,10.0,79,0.00,,SKC,0.00,VWS V14.01,2013-09-24 03:24:00,
2013-09-23 22:29:00,59.7,53.2,29.80,SE,142,5.0,10.0,79,0.00,,SKC,0.00,VWS V14.01,2013-09-24 03:29:00,
2013-09-23 22:30:00,61.2,53.9,29.80,SE,138,8.0,12.0,77,0.00,,SKC,0.00,VWS V14.01,2013-09-24 03:30:00,
2013-09-23 22:34:00,59.6,53.4,29.80,SE,142,5.0,8.0,80,0.00,,SKC,0.00,VWS V14.01,2013-09-24 03:34:00,
2013-09-23 22:39:00,59.5,53.7,29.80,SE,142,5.0,8.0,81,0.00,,SKC,0.00,VWS V14.01,2013-09-24 03:39:00,
2013-09-23 22:44:00,59.4,53.6,29.80,SE,142,4.0,8.0,81,0.00,,SKC,0.00,VWS V14.01,2013-09-24 03:44:00,
2013-09-23 22:49:00,59.3,53.5,29.80,SE,142,6.0,8.0,81,0.00,,SKC,0.00,VWS V14.01,2013-09-24 03:49:00,
2013-09-23 22:54:00,59.0,53.2,29.80,SE,139,7.0,9.0,81,0.00,,SKC,0.00,VWS V14.01,2013-09-24 03:54:00,
2013-09-23 22:59:00,59.0,53.2,29.81,SE,138,6.0,9.0,81,0.00,,SKC,0.00,VWS V14.01,2013-09-24 03:59:00,
2013-09-23 23:00:00,60.5,53.6,29.80,SE,136,6.0,10.0,78,0.00,,SKC,0.00,VWS V14.01,2013-09-24 04:00:00,
2013-09-23 23:01:00,59.0,53.5,29.80,SE,138,6.0,9.0,82,0.00,,SKC,0.00,VWS V14.01,2013-09-24 04:01:00,
2013-09-23 23:02:00,59.0,53.5,29.80,SE,138,2.0,6.0,82,0.00,,SKC,0.00,VWS V14.01,2013-09-24 04:02:00,
2013-09-23 23:03:00,59.0,53.5,29.80,SE,138,6.0,7.0,82,0.00,,SKC,0.00,VWS V14.01,2013-09-24 04:03:00,
2013-09-23 23:08:00,59.0,53.5,29.80,SE,138,5.0,9.0,82,0.00,,SKC,0.00,VWS V14.01,2013-09-24 04:08:00,
2013-09-23 23:12:00,59.0,53.8,29.80,SE,138,4.0,9.0,83,0.00,,SKC,0.00,VWS V14.01,2013-09-24 04:12:00,
2013-09-23 23:17:00,58.8,54.0,29.80,SE,138,4.0,9.0,84,0.00,,SKC,0.00,VWS V14.01,2013-09-24 04:17:00,
2013-09-23 23:22:00,58.6,53.5,29.80,SE,138,7.0,9.0,83,0.00,,SKC,0.00,VWS V14.01,2013-09-24 04:22:00,
2013-09-23 23:27:00,58.6,53.8,29.80,SE,138,7.0,9.0,84,0.00,,SKC,0.00,VWS V14.01,2013-09-24 04:27:00,
2013-09-23 23:30:00,59.6,53.1,29.80,SE,142,5.0,10.0,79,0.00,,SKC,0.00,VWS V14.01,2013-09-24 04:30:00,
2013-09-23 23:32:00,58.5,54.0,29.80,SE,138,4.0,7.0,85,0.00,,SKC,0.00,VWS V14.01,2013-09-24 04:32:00,
2013-09-23 23:37:00,58.4,53.6,29.80,SE,138,6.0,9.0,84,0.00,,SKC,0.00,VWS V14.01,2013-09-24 04:37:00,
2013-09-23 23:42:00,58.4,53.6,29.80,SE,137,8.0,10.0,84,0.00,,SKC,0.00,VWS V14.01,2013-09-24 04:42:00,
2013-09-23 23:47:00,58.4,53.6,29.80,SE,134,7.0,11.0,84,0.00,,SKC,0.00,VWS V14.01,2013-09-24 04:47:00,
2013-09-23 23:53:00,58.3,53.8,29.80,SE,133,5.0,11.0,85,0.00,,SKC,0.00,VWS V14.01,2013-09-24 04:53:00,
2013-09-23 23:58:00,58.2,53.7,29.80,SE,132,6.0,11.0,85,0.00,,SKC,0.00,VWS V14.01,2013-09-24 04:58:00,